Home   Weather   Hayfork   Past weeks
Flag for USA

Past Weather in Hayfork, California, USA — Yesterday and Last 2 Weeks

Now
70 °F

Sunny.


Feels Like: 70 °F
Forecast: 89 / 55 °F
Wind: 3 mph from Southwest

Location: Weaverville

Current Time: Jun 19, 2019 at 10:12:06 am

Latest Report: Jun 19, 2019 at 9:15 am


Visibility: 10 mi

Pressure: 30.07 "Hg (27.70 "Hg at 706m altitude)

Humidity: 57%

Dew Point: 54 °F

Location of HayforkLocation

Past Weather in Hayfork — Graph

°F

Hayfork Temperature Yesterday

Maximum temperature yesterday: 95 °F (at 3:55 pm)
Minimum temperature yesterday: 52 °F (at 5:55 am)
Average temperature yesterday: 74 °F

High & Low Weather Summary for the Past Weeks

 TemperatureHumidityPressure
High97 °F (Jun 11, 3:15 pm)94% (Jun 16, 4:15 am)30.25 "Hg (Jun 16, 4:15 am)
Low34 °F (Jun 8, 5:35 am)11% (Jun 9, 3:15 pm)29.82 "Hg (Jun 16, 6:15 pm)
Average68 °F47%30.03 "Hg
* Reported Jun 4 8:15 am — Jun 19 8:55 am, Hayfork. Weather by CustomWeather, © 2019

Note: Actual official high and low records may vary slightly from our data, if they occured in-between our weather recording intervals... More about our weather records

Advertising

Hayfork Weather History for the Previous 24 Hours

Scroll right to see more
 ConditionsComfort  
Time TempWeatherWind HumidityBarometerVisibility
8:55 am
Wed, Jun 19
68 °FSunny.No wind53%30.07 "Hg10 mi
8:35 am66 °FSunny.No wind60%30.08 "Hg10 mi
7:55 am63 °FSunny.No wind64%30.08 "Hg10 mi
7:35 am63 °FSunny.No wind64%30.08 "Hg7 mi
7:15 am57 °FSunny.No wind77%30.07 "Hg10 mi
6:55 am55 °FSunny.No wind82%30.07 "Hg10 mi
6:35 am54 °FSunny.No wind82%30.07 "Hg10 mi
6:15 am54 °FSunny.No wind82%30.07 "Hg10 mi
5:55 am54 °FSunny.No wind82%30.06 "Hg10 mi
5:35 am54 °FClear.No wind88%30.06 "Hg10 mi
5:15 am54 °FClear.No wind88%30.05 "Hg10 mi
4:55 am55 °FClear.No wind82%30.05 "Hg10 mi
4:35 am55 °FClear.No wind82%30.04 "Hg10 mi
3:55 am55 °FClear.No wind82%30.04 "Hg10 mi
3:35 am55 °FClear.No wind82%30.04 "Hg10 mi
3:15 am57 °FClear.No wind77%30.04 "Hg10 mi
2:55 am57 °FClear.No wind77%30.04 "Hg10 mi
2:35 am59 °FClear.3 mph72%30.04 "Hg10 mi
1:55 am59 °FClear.No wind72%30.03 "Hg10 mi
1:35 am59 °FClear.No wind77%30.03 "Hg10 mi
12:55 am63 °FClear.3 mph68%30.03 "Hg10 mi
12:35 am63 °FClear.No wind68%30.03 "Hg10 mi
12:15 am63 °FClear.No wind68%30.03 "Hg10 mi
11:55 pm
Tue, Jun 18
64 °FClear.3 mph60%30.03 "Hg10 mi
11:35 pm64 °FClear.No wind64%30.02 "Hg10 mi
10:55 pm66 °FClear.No wind60%30.02 "Hg10 mi
10:35 pm68 °FClear.3 mph49%30.01 "Hg10 mi
10:15 pm68 °FClear.No wind56%30.01 "Hg10 mi
9:55 pm68 °FClear.No wind60%30.00 "Hg10 mi
9:35 pm70 °FClear.3 mph60%29.99 "Hg10 mi
8:55 pm75 °FClear.5 mph54%29.98 "Hg10 mi
8:35 pm75 °FSunny.No wind54%29.98 "Hg10 mi
8:15 pm82 °FSunny.3 mph40%29.98 "Hg10 mi
7:55 pm86 °FSunny.9 mph27%29.98 "Hg10 mi
7:35 pm90 °FSunny.5 mph26%29.97 "Hg10 mi
7:15 pm90 °FSunny.7 mph26%29.97 "Hg10 mi
6:55 pm91 °FSunny.7 mph23%29.97 "Hg10 mi
6:35 pm91 °FSunny.6 mph23%29.96 "Hg10 mi
6:15 pm93 °FSunny.5 mph20%29.96 "Hg10 mi
5:55 pm93 °FSunny.7 mph19%29.97 "Hg10 mi
5:15 pm95 °FSunny.7 mph18%29.97 "Hg10 mi
4:55 pm95 °FSunny.5 mph18%29.98 "Hg10 mi
4:35 pm95 °FSunny.6 mph18%29.98 "Hg10 mi
4:15 pm95 °FSunny.5 mph18%29.99 "Hg10 mi
3:55 pm95 °FSunny.3 mph19%29.99 "Hg10 mi
3:35 pm93 °FSunny.No wind19%30.00 "Hg10 mi
3:15 pm93 °FSunny.No wind16%30.00 "Hg10 mi
2:55 pm91 °FSunny.7 mph17%30.01 "Hg10 mi
2:35 pm91 °FSunny.3 mph17%30.02 "Hg10 mi
2:15 pm91 °FSunny.3 mph17%30.02 "Hg10 mi
1:55 pm90 °FSunny.No wind18%30.03 "Hg10 mi
1:35 pm90 °FSunny.6 mph18%30.03 "Hg10 mi
1:15 pm90 °FSunny.No wind20%30.04 "Hg10 mi
12:55 pm86 °FSunny.No wind22%30.05 "Hg10 mi
12:35 pm86 °FSunny.3 mph25%30.05 "Hg10 mi
12:15 pm84 °FSunny.3 mph27%30.06 "Hg10 mi
11:55 am84 °FSunny.No wind27%30.06 "Hg10 mi
11:35 am82 °FSunny.5 mph30%30.07 "Hg10 mi
11:15 am82 °FSunny.5 mph28%30.07 "Hg10 mi
10:55 am81 °FSunny.3 mph28%30.08 "Hg10 mi
10:35 am79 °FSunny.No wind34%30.09 "Hg10 mi
10:15 am77 °FSunny.No wind36%30.09 "Hg10 mi
Weather by CustomWeather, © 2019

See weather overview